Regional Weather Roundup
Issued by NWS

Home | Current Version | Previous Version | Graphics & Text | Print | Product List | Glossary On
Versions: 1 2 3 4 5 6 7 8 9 10 11 12 13 14 15 16 17 18 19 20 21 22 23 24 25 26 27 28 29 30 31 32 33 34 35 36 37 38 39 40 41 42 43 44 45 46 47 48 49 50
000
ASUS43 KDTX 270901
RWRMI
MICHIGAN HOURLY REGIONAL WEATHER ROUNDUP
NATIONAL WEATHER SERVICE DETROIT/PONTIAC MI
500 AM EDT WED JUL 27 2016

NOTE: "FAIR" INDICATES FEW OR NO CLOUDS BELOW 12,000 FEET WITH NO
SIGNIFICANT WEATHER AND/OR OBSTRUCTION TO VISIBILITY.

MIZ047>049-052>055-059>063-066>070-074>076-081>083-271000-
SOUTHEAST LOWER MICHIGAN

CITY           SKY/WX    TMP DP  RH WIND       PRES   REMARKS
ADRIAN         CLEAR     62  61  96 CALM      30.02S
ALMA           CLEAR     64  63  97 CALM      29.99S
ANN ARBOR      CLEAR     61  61 100 CALM      30.00S
BAD AXE        CLEAR     63  59  89 CALM      29.97S
CARO           CLEAR     60  59  97 CALM      29.97S
DETROIT CITY   CLEAR     70  62  76 CALM      29.99S
DETROIT        PTCLDY    68  61  78 SW5       30.00S
FLINT          PTCLDY    65  61  87 SW3       30.00R
GROSSE ILE     CLEAR     70  62  76 CALM      29.99R
HOWELL         CLEAR     65  63  91 CALM      30.00S

CITY           SKY/WX    TMP DP  RH WIND       PRES   REMARKS
JACKSON        CLEAR     64  64 100 SW5       30.02R
LAMBERTVILLE   CLEAR     64  62  92 CALM      30.01S
LANSING        CLEAR     65  62  90 CALM      30.01R
LAPEER         FAIR      60  60  97 CALM      30.00S
MASON          CLEAR     62  60  94 CALM      30.01S
MONROE         CLEAR     64  63  96 CALM      29.99S
MT. CLEMENS    CLEAR     67  62  83 W2        29.97S
PONTIAC        CLEAR     68  63  84 CALM      29.99S
PORT HURON     CLEAR     59  59 100 CALM      29.99S FOG
TRI CITIES     PTCLDY    66  63  90 SW6       29.98R
MIDLAND        FAIR      62  62  98 CALM      29.97S
TROY           CLEAR     71  62  75 CALM      30.01S
SAGINAW HB     PTCLDY    64  63  94 SW5       29.97S
$$
MIZ043>046-050>051-056>058-064>065-071>073-077>080-271000-
SOUTHWEST LOWER MICHIGAN

CITY           SKY/WX    TMP DP  RH WIND       PRES   REMARKS
BATTLE CREEK   CLEAR     64  64 100 S3        30.02R
BENTON HARBOR  CLEAR     62  59  90 CALM      30.00R
BIG RAPIDS     CLEAR     63  63 100 CALM      29.99S
COLDWATER      CLEAR     63  63 100 CALM      30.01S
FREMONT        FAIR      63  63 100 CALM      30.00R
HOLLAND        CLEAR     62  61  96 SE3       30.01S
GRAND RAPIDS   CLEAR     64  60  87 W3        30.01S
IONIA          FAIR      65  60  86 W7        29.99F
KALAMAZOO      CLEAR     65  62  90 CALM      30.02R
LUDINGTON      MOCLDY    73  67  82 SW7       29.96F
MARSHALL       CLEAR     64  64  98 CALM      30.01R FOG
MOUNT PLEASANT CLEAR     66  61  81 W5        29.98S
MUSKEGON         N/A     67  64  90 SW3       30.00R
SOUTH HAVEN    CLEAR     61  60  98 CALM      30.00S
$$
MIZ016>042-271000-
NORTHERN LOWER MICHIGAN

CITY           SKY/WX    TMP DP  RH WIND       PRES   REMARKS
ALPENA         CLEAR     65  61  87 S3        29.92F
BEAVER ISLAND  CLEAR     69  66  90 NW5       29.94S
BELLAIRE       CLEAR     65  61  85 CALM      29.95R
CADILLAC       MOCLDY    67  60  76 W5        29.99R
CHARLEVOIX     CLEAR     71  68  88 W7        29.97R
FRANKFORT      PTCLDY    72  66  80 W3        29.95S
GAYLORD        CLEAR     70  58  65 W8        29.96S
GRAYLING       CLEAR     69  58  69 SW6       29.97S
HARBOR SPRINGS CLEAR     70  67  90 W3        29.94R
HOUGHTON LAKE  PTCLDY    70  60  70 VRB6      29.98F
MANISTEE       MOCLDY    67  64  90 E3        29.96S
OSCODA         CLOUDY    68  61  77 N5        29.94R
PELLSTON       PTCLDY    70  65  84 CALM      29.93S
ROGERS CITY    CLEAR     67  64  89 SW6       29.92S
TRAVERSE CITY  CLEAR     74  62  66 SW6       29.93S
$$
MIZ007>008-015-271000-
EASTERN UPPER MICHIGAN

CITY           SKY/WX    TMP DP  RH WIND       PRES   REMARKS
KINROSS        CLEAR     64  64 100 N3        29.93R
MACKINAC ISLAN CLEAR     68  68 100 NW7       29.92R
S. S. MARIE    PTCLDY    65  64  97 NW3       29.92R
$$
MIZ004>006-011>014-085-271000-
CENTRAL UPPER MICHIGAN

CITY           SKY/WX    TMP DP  RH WIND       PRES   REMARKS
MANISTIQUE     CLEAR     65  64  97 NW5       29.95R
ESCANABA       MOCLDY    70  64  83 NW10      29.96R
MENOMINEE      MOCLDY   N/A N/A N/A N7        29.97S
SAWYER-GWINN   CLOUDY    65  64  94 W8        29.99R
$$
MIZ001>003-009>011-084-271000-
WESTERN UPPER MICHIGAN

CITY           SKY/WX    TMP DP  RH WIND       PRES   REMARKS
IRON MOUNTAIN  MOCLDY    67  60  78 W5        29.97F
HOUGHTON       CLOUDY    62  59  90 NW3       29.96S
IRONWOOD       CLOUDY    68  68 100 CALM      29.95S
$$

ABBREVIATIONS USED IN REMARKS
   TC - TEMPERATURE IN CELSIUS
  WCI - WIND CHILL INDEX
   HX - HEAT INDEX
  VSB - VISIBILITY





USA.gov is the U.S. government's official web portal to all federal, state and local government web resources and services.